Time,TemperatureF,DewpointF,PressureIn,WindDirection,WindDirectionDegrees,WindSpeedMPH,WindSpeedGustMPH,Humidity,HourlyPrecipIn,Conditions,Clouds,dailyrainin,SoftwareType,DateUTC
2013-03-16 08:40:00,32.1,31.3,29.86,NNW,338,12.0,14.0,97,0.00,,,0.00,Wunderground v.1.15,2013-03-16 13:40:00,
2013-03-16 08:45:00,32.1,31.3,29.86,NNW,339,11.0,14.0,97,0.00,,,0.00,Wunderground v.1.15,2013-03-16 13:45:00,
2013-03-16 08:50:00,32.1,31.3,29.87,NW,323,11.0,11.0,97,0.00,,,0.00,Wunderground v.1.15,2013-03-16 13:50:00,
2013-03-16 08:55:00,32.0,31.2,29.87,NW,323,11.0,11.0,97,0.00,,,0.00,Wunderground v.1.15,2013-03-16 13:55:00,
2013-03-16 09:00:00,31.9,30.9,29.87,NW,317,11.0,13.0,96,0.00,,,0.00,Wunderground v.1.15,2013-03-16 14:00:00,
2013-03-16 09:05:00,31.9,30.9,29.88,NNW,335,12.0,13.0,96,0.00,,,0.00,Wunderground v.1.15,2013-03-16 14:05:00,
2013-03-16 09:10:00,31.9,30.9,29.88,NW,318,11.0,11.0,96,0.00,,,0.00,Wunderground v.1.15,2013-03-16 14:10:00,
2013-03-16 11:55:00,32.7,30.6,29.97,NW,322,11.0,11.0,92,0.00,,,0.00,Wunderground v.1.15,2013-03-16 16:55:00,
2013-03-16 12:00:00,33.1,31.0,29.96,NNW,335,11.0,14.0,92,0.00,,,0.00,Wunderground v.1.15,2013-03-16 17:00:00,
2013-03-16 12:10:00,33.4,31.1,29.97,North,8,11.0,11.0,91,0.00,,,0.00,Wunderground v.1.15,2013-03-16 17:10:00,
2013-03-16 12:15:00,33.7,31.4,29.98,NNW,328,10.0,14.0,91,0.00,,,0.00,Wunderground v.1.15,2013-03-16 17:15:00,
2013-03-16 12:20:00,33.8,31.2,29.98,NW,322,10.0,10.0,90,0.00,,,0.00,Wunderground v.1.15,2013-03-16 17:20:00,
2013-03-16 12:25:00,33.9,31.3,29.98,NW,321,10.0,10.0,90,0.00,,,0.00,Wunderground v.1.15,2013-03-16 17:25:00,
2013-03-16 12:30:00,33.9,31.3,29.98,NNW,332,11.0,11.0,90,0.00,,,0.00,Wunderground v.1.15,2013-03-16 17:30:00,
2013-03-16 12:35:00,34.0,31.4,29.98,NNW,337,12.0,12.0,90,0.00,,,0.00,Wunderground v.1.15,2013-03-16 17:35:00,
2013-03-16 12:40:00,34.2,31.3,29.98,NW,304,12.0,12.0,89,0.00,,,0.00,Wunderground v.1.15,2013-03-16 17:40:00,
2013-03-16 12:45:00,34.1,31.5,29.97,NNW,330,12.0,15.0,90,0.00,,,0.00,Wunderground v.1.15,2013-03-16 17:45:00,
2013-03-16 12:50:00,33.8,30.9,29.98,NW,319,12.0,12.0,89,0.00,,,0.00,Wunderground v.1.15,2013-03-16 17:50:00,
2013-03-16 13:00:00,34.2,31.3,29.98,NNW,333,13.0,13.0,89,0.00,,,0.00,Wunderground v.1.15,2013-03-16 18:00:00,
2013-03-16 13:10:00,34.3,31.4,29.99,North,4,13.0,13.0,89,0.00,,,0.00,Wunderground v.1.15,2013-03-16 18:10:00,
2013-03-16 13:20:00,34.2,31.3,29.99,NNE,16,12.0,14.0,89,0.00,,,0.00,Wunderground v.1.15,2013-03-16 18:20:00,
2013-03-16 13:25:00,34.0,31.1,29.99,North,352,12.0,14.0,89,0.00,,,0.00,Wunderground v.1.15,2013-03-16 18:25:00,
2013-03-16 13:35:00,34.2,31.0,29.99,NNW,335,12.0,12.0,88,0.00,,,0.00,Wunderground v.1.15,2013-03-16 18:35:00,
2013-03-16 13:40:00,34.5,31.6,29.98,North,360,12.0,12.0,89,0.00,,,0.00,Wunderground v.1.15,2013-03-16 18:40:00,
2013-03-16 13:50:00,34.3,31.1,29.99,NNW,348,12.0,12.0,88,0.00,,,0.00,Wunderground v.1.15,2013-03-16 18:50:00,
2013-03-16 13:55:00,34.3,31.7,29.99,NNE,18,12.0,12.0,90,0.00,,,0.00,Wunderground v.1.15,2013-03-16 18:55:00,
2013-03-16 14:00:00,34.2,31.0,29.99,North,353,12.0,13.0,88,0.00,,,0.00,Wunderground v.1.15,2013-03-16 19:00:00,
2013-03-16 14:10:00,34.3,31.7,29.99,NNW,346,12.0,12.0,90,0.00,,,0.00,Wunderground v.1.15,2013-03-16 19:10:00,
2013-03-16 14:15:00,34.5,31.0,29.99,NNW,330,11.0,12.0,87,0.00,,,0.00,Wunderground v.1.15,2013-03-16 19:15:00,
2013-03-16 14:20:00,34.5,31.3,29.99,North,11,11.0,12.0,88,0.00,,,0.00,Wunderground v.1.15,2013-03-16 19:20:00,
2013-03-16 14:25:00,34.3,31.4,29.99,NNE,18,10.0,12.0,89,0.00,,,0.00,Wunderground v.1.15,2013-03-16 19:25:00,
2013-03-16 14:30:00,34.5,31.0,29.99,NNW,343,10.0,10.0,87,0.00,,,0.00,Wunderground v.1.15,2013-03-16 19:30:00,
2013-03-16 14:35:00,34.9,31.1,29.99,NNW,328,10.0,10.0,86,0.00,,,0.00,Wunderground v.1.15,2013-03-16 19:35:00,
2013-03-16 14:45:00,35.2,31.7,30.00,NNW,340,10.0,12.0,87,0.00,,,0.00,Wunderground v.1.15,2013-03-16 19:45:00,
2013-03-16 14:50:00,35.3,31.5,30.00,NNW,337,10.0,12.0,86,0.00,,,0.00,Wunderground v.1.15,2013-03-16 19:50:00,
2013-03-16 14:55:00,35.0,30.9,30.00,NNW,340,11.0,12.0,85,0.00,,,0.00,Wunderground v.1.15,2013-03-16 19:55:00,
2013-03-16 15:00:00,34.8,31.0,30.00,NNW,338,11.0,11.0,86,0.00,,,0.00,Wunderground v.1.15,2013-03-16 20:00:00,
2013-03-16 15:10:00,34.4,30.6,30.01,NW,324,11.0,13.0,86,0.00,,,0.00,Wunderground v.1.15,2013-03-16 20:10:00,
2013-03-16 15:15:00,34.5,30.7,30.01,NW,323,11.0,13.0,86,0.00,,,0.00,Wunderground v.1.15,2013-03-16 20:15:00,
2013-03-16 15:25:00,34.1,30.6,30.01,NNE,27,10.0,11.0,87,0.00,,,0.00,Wunderground v.1.15,2013-03-16 20:25:00,
2013-03-16 15:30:00,33.8,30.1,30.01,NNW,328,10.0,10.0,86,0.00,,,0.00,Wunderground v.1.15,2013-03-16 20:30:00,
2013-03-16 15:35:00,33.5,30.0,30.01,North,358,11.0,13.0,87,0.00,,,0.00,Wunderground v.1.15,2013-03-16 20:35:00,
2013-03-16 15:45:00,33.2,29.8,30.02,NNW,330,10.0,11.0,87,0.00,,,0.00,Wunderground v.1.15,2013-03-16 20:45:00,
2013-03-16 15:50:00,33.0,29.6,30.02,NNW,346,9.0,9.0,87,0.00,,,0.00,Wunderground v.1.15,2013-03-16 20:50:00,
2013-03-16 15:55:00,32.9,29.5,30.02,NNE,16,9.0,9.0,87,0.00,,,0.00,Wunderground v.1.15,2013-03-16 20:55:00,
2013-03-16 16:00:00,32.9,29.5,30.02,NNW,348,9.0,9.0,87,0.00,,,0.00,Wunderground v.1.15,2013-03-16 21:00:00,
2013-03-16 16:15:00,32.7,29.0,30.03,North,360,7.0,9.0,86,0.00,,,0.00,Wunderground v.1.15,2013-03-16 21:15:00,
2013-03-16 16:25:00,32.6,29.2,30.03,NNW,335,8.0,9.0,87,0.00,,,0.00,Wunderground v.1.15,2013-03-16 21:25:00,
2013-03-16 16:30:00,32.5,28.8,30.03,NNW,346,8.0,9.0,86,0.00,,,0.00,Wunderground v.1.15,2013-03-16 21:30:00,
2013-03-16 16:35:00,32.3,28.3,30.03,North,349,10.0,10.0,85,0.00,,,0.00,Wunderground v.1.15,2013-03-16 21:35:00,
2013-03-16 16:40:00,32.3,28.6,30.03,North,11,10.0,10.0,86,0.00,,,0.00,Wunderground v.1.15,2013-03-16 21:40:00,
2013-03-16 16:45:00,32.1,28.1,30.04,NNW,346,9.0,9.0,85,0.00,,,0.00,Wunderground v.1.15,2013-03-16 21:45:00,
2013-03-16 16:50:00,32.1,28.4,30.04,North,354,9.0,9.0,86,0.00,,,0.00,Wunderground v.1.15,2013-03-16 21:50:00,
2013-03-16 16:55:00,31.9,28.2,30.04,North,351,9.0,9.0,86,0.00,,,0.00,Wunderground v.1.15,2013-03-16 21:55:00,
2013-03-16 17:00:00,32.0,28.3,30.04,North,353,9.0,9.0,86,0.00,,,0.00,Wunderground v.1.15,2013-03-16 22:00:00,
2013-03-16 17:10:00,31.8,28.1,30.04,NNE,16,7.0,9.0,86,0.00,,,0.00,Wunderground v.1.15,2013-03-16 22:10:00,
2013-03-16 17:15:00,31.6,27.9,30.04,NNE,30,8.0,9.0,86,0.00,,,0.00,Wunderground v.1.15,2013-03-16 22:15:00,
2013-03-16 17:25:00,31.4,28.0,30.05,NNE,20,8.0,9.0,87,0.00,,,0.00,Wunderground v.1.15,2013-03-16 22:25:00,
2013-03-16 17:30:00,31.2,27.5,30.05,North,360,9.0,10.0,86,0.00,,,0.00,Wunderground v.1.15,2013-03-16 22:30:00,
2013-03-16 17:35:00,31.0,27.6,30.05,North,354,9.0,11.0,87,0.00,,,0.00,Wunderground v.1.15,2013-03-16 22:35:00,
2013-03-16 17:45:00,30.6,27.2,30.05,North,353,9.0,11.0,87,0.00,,,0.00,Wunderground v.1.15,2013-03-16 22:45:00,
2013-03-16 17:50:00,30.6,26.9,30.05,NW,323,9.0,9.0,86,0.00,,,0.00,Wunderground v.1.15,2013-03-16 22:50:00,
2013-03-16 17:55:00,30.6,26.6,30.05,NNW,342,8.0,10.0,85,0.00,,,0.00,Wunderground v.1.15,2013-03-16 22:55:00,
2013-03-16 18:00:00,30.5,26.2,30.05,North,353,7.0,9.0,84,0.00,,,0.00,Wunderground v.1.15,2013-03-16 23:00:00,
2013-03-16 18:10:00,30.5,26.5,30.06,NW,321,5.0,5.0,85,0.00,,,0.00,Wunderground v.1.15,2013-03-16 23:10:00,
2013-03-16 18:15:00,30.4,26.1,30.06,NNW,338,5.0,5.0,84,0.00,,,0.00,Wunderground v.1.15,2013-03-16 23:15:00,
2013-03-16 18:20:00,30.4,26.4,30.06,NNW,327,5.0,5.0,85,0.00,,,0.00,Wunderground v.1.15,2013-03-16 23:20:00,
2013-03-16 20:40:00,29.9,25.4,30.11,WNW,301,3.0,3.0,83,0.00,,,0.00,Wunderground v.1.15,2013-03-17 01:40:00,
2013-03-16 20:45:00,30.0,25.2,30.11,NW,312,2.0,10.0,82,0.00,,,0.00,Wunderground v.1.15,2013-03-17 01:45:00,
2013-03-16 20:50:00,29.9,25.1,30.10,NW,319,2.0,2.0,82,0.00,,,0.00,Wunderground v.1.15,2013-03-17 01:50:00,
2013-03-16 20:55:00,29.9,25.1,30.11,WNW,293,2.0,10.0,82,0.00,,,0.00,Wunderground v.1.15,2013-03-17 01:55:00,
2013-03-16 21:00:00,29.9,25.4,30.11,NW,321,1.0,2.0,83,0.00,,,0.00,Wunderground v.1.15,2013-03-17 02:00:00,
2013-03-16 21:10:00,30.0,24.9,30.11,NW,326,1.0,1.0,81,0.00,,,0.00,Wunderground v.1.15,2013-03-17 02:10:00,
2013-03-16 21:15:00,29.9,25.1,30.11,NNW,331,1.0,1.0,82,0.00,,,0.00,Wunderground v.1.15,2013-03-17 02:15:00,
2013-03-16 21:20:00,29.8,25.3,30.11,NNW,331,1.0,1.0,83,0.00,,,0.00,Wunderground v.1.15,2013-03-17 02:20:00,
2013-03-16 21:25:00,29.5,25.0,30.11,NNW,332,0.0,1.0,83,0.00,,,0.00,Wunderground v.1.15,2013-03-17 02:25:00,
2013-03-16 21:30:00,29.3,24.8,30.11,NNW,331,0.0,0.0,83,0.00,,,0.00,Wunderground v.1.15,2013-03-17 02:30:00,
2013-03-16 21:35:00,29.1,25.2,30.11,NNW,331,0.0,0.0,85,0.00,,,0.00,Wunderground v.1.15,2013-03-17 02:35:00,
2013-03-16 21:55:00,28.8,25.4,30.12,NNW,331,0.0,0.0,87,0.00,,,0.00,Wunderground v.1.15,2013-03-17 02:55:00,
2013-03-16 22:00:00,29.0,25.6,30.12,NNW,332,0.0,0.0,87,0.00,,,0.00,Wunderground v.1.15,2013-03-17 03:00:00,
2013-03-16 22:10:00,28.9,25.8,30.12,NNW,332,0.0,0.0,88,0.00,,,0.00,Wunderground v.1.15,2013-03-17 03:10:00,
2013-03-16 22:15:00,28.8,25.4,30.12,NNW,332,0.0,0.0,87,0.00,,,0.00,Wunderground v.1.15,2013-03-17 03:15:00,
2013-03-16 22:20:00,28.5,25.4,30.12,NNW,331,0.0,0.0,88,0.00,,,0.00,Wunderground v.1.15,2013-03-17 03:20:00,